,,Stat5,,Stat1,,Stat2,,Stat3,,Stat4,,Wind1,,Wind1,
time,status,PA1M_AVG,status,PR1M_SUM,status,RH1M_AVG,status,SR1M_AVG,status,TA1M_AVG,status,W1dAve1m,status,W1sAve1m,
2001-08-02, 00:00:00,VALID,917.154,VALID,0,VALID,97.2371,VALID,0.101885,VALID,18.5495,VALID,99,VALID,0.792969,
2001-08-02, 00:01:00,VALID,917.156,VALID,0,VALID,97.246,VALID,0.0849042,VALID,18.5365,VALID,91,VALID,0.609821,
2001-08-02, 00:02:00,VALID,917.155,VALID,0,VALID,97.2828,VALID,0.101885,VALID,18.5559,VALID,92,VALID,0.589627,
2001-08-02, 00:03:00,VALID,917.155,VALID,0,VALID,97.0082,VALID,0.101885,VALID,18.5333,VALID,91,VALID,0.602385,
2001-08-02, 00:04:00,VALID,917.137,VALID,0,VALID,97.0056,VALID,0.101885,VALID,18.5102,VALID,92,VALID,0.723884,
2001-08-02, 00:05:00,VALID,917.113,VALID,0,VALID,96.9878,VALID,0.101885,VALID,18.4969,VALID,95,VALID,0.524639,
2001-08-02, 00:06:00,VALID,917.088,VALID,0,VALID,96.8492,VALID,0.0849042,VALID,18.4876,VALID,93,VALID,0.329963,
2001-08-02, 00:07:00,VALID,917.092,VALID,0,VALID,96.7805,VALID,0.101885,VALID,18.4715,VALID,93,VALID,0.159951,
2001-08-02, 00:08:00,VALID,917.075,VALID,0,VALID,96.2935,VALID,0.0849042,VALID,18.4235,VALID,90,VALID,0,
2001-08-02, 00:09:00,VALID,917.076,VALID,0,VALID,95.776,VALID,0.101885,VALID,18.3066,VALID,79,VALID,0,
2001-08-02, 00:10:00,VALID,917.061,VALID,0,VALID,95.6755,VALID,0.0679233,VALID,18.2164,VALID,71,VALID,0,
2001-08-02, 00:11:00,VALID,917.075,VALID,0,VALID,95.715,VALID,0.0849042,VALID,18.1454,VALID,71,VALID,0,
2001-08-02, 00:12:00,VALID,917.096,VALID,0,VALID,96.1587,VALID,0.101885,VALID,18.0905,VALID,75,VALID,0,
2001-08-02, 00:13:00,VALID,917.096,VALID,0,VALID,96.53,VALID,0.0679233,VALID,18.1076,VALID,83,VALID,0,
2001-08-02, 00:14:00,VALID,917.086,VALID,0,VALID,97.1722,VALID,0,VALID,18.1537,VALID,90,VALID,0,
2001-08-02, 00:15:00,VALID,917.081,VALID,0,VALID,97.452,VALID,0,VALID,18.2019,VALID,94,VALID,0,
2001-08-02, 00:16:00,VALID,917.065,VALID,0,VALID,97.6262,VALID,0.0169808,VALID,18.2443,VALID,102,VALID,0,
2001-08-02, 00:17:00,VALID,917.05,VALID,0,VALID,97.6287,VALID,0,VALID,18.2598,VALID,123,VALID,0,
2001-08-02, 00:18:00,VALID,917.032,VALID,0,VALID,97.5702,VALID,0,VALID,18.2565,VALID,145,VALID,0,
2001-08-02, 00:19:00,VALID,917.011,VALID,0,VALID,97.4761,VALID,0,VALID,18.2473,VALID,145,VALID,0,
2001-08-02, 00:20:00,VALID,916.997,VALID,0,VALID,97.4583,VALID,0,VALID,18.2143,VALID,145,VALID,0,
2001-08-02, 00:21:00,VALID,916.987,VALID,0,VALID,97.733,VALID,0,VALID,18.2441,VALID,154,VALID,0,
2001-08-02, 00:22:00,VALID,916.967,VALID,0,VALID,97.9085,VALID,0,VALID,18.2861,VALID,154,VALID,0,
2001-08-02, 00:23:00,VALID,916.958,VALID,0,VALID,97.9377,VALID,0,VALID,18.3124,VALID,154,VALID,0,
2001-08-02, 00:24:00,VALID,916.947,VALID,0,VALID,97.9097,VALID,0,VALID,18.3121,VALID,154,VALID,0,
2001-08-02, 00:25:00,VALID,916.929,VALID,0,VALID,97.9301,VALID,-0.0169808,VALID,18.3024,VALID,154,VALID,0,
2001-08-02, 00:26:00,VALID,916.931,VALID,0,VALID,97.9225,VALID,-0.0169808,VALID,18.302,VALID,154,VALID,0,
2001-08-02, 00:27:00,VALID,916.929,VALID,0,VALID,97.8334,VALID,-0.0339617,VALID,18.2964,VALID,154,VALID,0,
2001-08-02, 00:28:00,VALID,916.924,VALID,0,VALID,97.7851,VALID,-0.0509425,VALID,18.2632,VALID,154,VALID,0,
2001-08-02, 00:29:00,VALID,916.942,VALID,0,VALID,97.7826,VALID,0,VALID,18.2469,VALID,154,VALID,0,
2001-08-02, 00:30:00,VALID,916.954,VALID,0,VALID,97.9161,VALID,-0.0169808,VALID,18.2503,VALID,154,VALID,0,
2001-08-02, 00:31:00,VALID,916.957,VALID,0,VALID,97.9848,VALID,0,VALID,18.2639,VALID,151,VALID,0,
2001-08-02, 00:32:00,VALID,916.962,VALID,0,VALID,97.9555,VALID,0,VALID,18.2635,VALID,149,VALID,0,
2001-08-02, 00:33:00,VALID,916.976,VALID,0,VALID,97.6122,VALID,-0.0169808,VALID,18.1989,VALID,149,VALID,0,
2001-08-02, 00:34:00,VALID,916.983,VALID,0,VALID,97.6503,VALID,-0.0169808,VALID,18.1509,VALID,149,VALID,0,
2001-08-02, 00:35:00,VALID,916.98,VALID,0,VALID,97.8779,VALID,0,VALID,18.1504,VALID,143,VALID,0,
2001-08-02, 00:36:00,VALID,916.971,VALID,0,VALID,97.6503,VALID,-0.0339617,VALID,18.135,VALID,101,VALID,0,
2001-08-02, 00:37:00,VALID,916.973,VALID,0,VALID,97.3413,VALID,0,VALID,18.0573,VALID,74,VALID,0,
2001-08-02, 00:38:00,VALID,916.961,VALID,0,VALID,97.0018,VALID,-0.0339617,VALID,17.9632,VALID,69,VALID,0,
2001-08-02, 00:39:00,VALID,916.948,VALID,0,VALID,96.8251,VALID,-0.0169808,VALID,17.8958,VALID,69,VALID,0,
2001-08-02, 00:40:00,VALID,916.948,VALID,0,VALID,96.689,VALID,-0.0339617,VALID,17.8506,VALID,69,VALID,0,
2001-08-02, 00:41:00,VALID,916.915,VALID,0,VALID,96.6801,VALID,0,VALID,17.8022,VALID,69,VALID,0,
2001-08-02, 00:42:00,VALID,916.898,VALID,0,VALID,97.3808,VALID,0,VALID,17.8146,VALID,71,VALID,0,
2001-08-02, 00:43:00,VALID,916.875,VALID,0,VALID,98.0839,VALID,-0.0339617,VALID,17.9283,VALID,77,VALID,0,
2001-08-02, 00:44:00,VALID,916.859,VALID,0,VALID,98.1183,VALID,-0.0169808,VALID,17.9892,VALID,77,VALID,0,
2001-08-02, 00:45:00,VALID,916.845,VALID,0,VALID,97.9225,VALID,0,VALID,17.9925,VALID,77,VALID,0,
2001-08-02, 00:46:00,VALID,916.828,VALID,0,VALID,97.7025,VALID,0,VALID,17.9567,VALID,77,VALID,0,
2001-08-02, 00:47:00,VALID,916.826,VALID,0,VALID,97.7813,VALID,0,VALID,17.938,VALID,77,VALID,0,
2001-08-02, 00:48:00,VALID,916.82,VALID,0,VALID,97.7622,VALID,-0.0339617,VALID,17.9189,VALID,77,VALID,0,
2001-08-02, 00:49:00,VALID,916.849,VALID,0,VALID,97.6974,VALID,0,VALID,17.906,VALID,77,VALID,0,
2001-08-02, 00:50:00,VALID,916.85,VALID,0,VALID,97.6185,VALID,-0.0169808,VALID,17.8764,VALID,77,VALID,0,
2001-08-02, 00:51:00,VALID,916.841,VALID,0,VALID,97.7355,VALID,-0.0169808,VALID,17.8737,VALID,79,VALID,0,
2001-08-02, 00:52:00,VALID,916.854,VALID,0,VALID,97.4329,VALID,-0.0169808,VALID,17.825,VALID,57,VALID,0,
2001-08-02, 00:53:00,VALID,916.838,VALID,0,VALID,96.9153,VALID,-0.0169808,VALID,17.7251,VALID,43,VALID,0,
2001-08-02, 00:54:00,VALID,916.847,VALID,0,VALID,96.8073,VALID,-0.0169808,VALID,17.6571,VALID,43,VALID,0,
2001-08-02, 00:55:00,VALID,916.838,VALID,0,VALID,96.6674,VALID,-0.0169808,VALID,17.6024,VALID,6,VALID,0,
2001-08-02, 00:56:00,VALID,916.858,VALID,0,VALID,97.5461,VALID,-0.0169808,VALID,17.7025,VALID,349,VALID,0,
2001-08-02, 00:57:00,VALID,916.863,VALID,0,VALID,97.925,VALID,-0.0509425,VALID,17.7733,VALID,9,VALID,0,
2001-08-02, 00:58:00,VALID,916.862,VALID,0,VALID,97.5422,VALID,-0.0169808,VALID,17.7187,VALID,15,VALID,0,
2001-08-02, 00:59:00,VALID,916.872,VALID,0,VALID,97.4647,VALID,-0.0169808,VALID,17.67,VALID,15,VALID,0,
2001-08-02, 01:00:00,VALID,916.861,VALID,0,VALID,97.6758,VALID,-0.0509425,VALID,17.6767,VALID,15,VALID,0,
2001-08-02, 01:01:00,VALID,916.878,VALID,0,VALID,98.0204,VALID,-0.0679233,VALID,17.7318,VALID,21,VALID,0,
2001-08-02, 01:02:00,VALID,916.865,VALID,0,VALID,97.8894,VALID,-0.0849042,VALID,17.7256,VALID,30,VALID,0,
2001-08-02, 01:03:00,VALID,916.863,VALID,0,VALID,98.1106,VALID,-0.0169808,VALID,17.7482,VALID,34,VALID,0,
2001-08-02, 01:04:00,VALID,916.866,VALID,0,VALID,98.3332,VALID,0,VALID,17.8188,VALID,29,VALID,0,
2001-08-02, 01:05:00,VALID,916.865,VALID,0,VALID,98.337,VALID,-0.0339617,VALID,17.8478,VALID,29,VALID,0,
2001-08-02, 01:06:00,VALID,916.879,VALID,0,VALID,98.262,VALID,-0.0509425,VALID,17.8547,VALID,29,VALID,0,
2001-08-02, 01:07:00,VALID,916.878,VALID,0,VALID,98.2137,VALID,-0.0169808,VALID,17.8577,VALID,29,VALID,0,
2001-08-02, 01:08:00,VALID,916.864,VALID,0,VALID,98.0725,VALID,-0.0169808,VALID,17.8255,VALID,47,VALID,0,
2001-08-02, 01:09:00,VALID,916.862,VALID,0,VALID,98.0916,VALID,0,VALID,17.8222,VALID,39,VALID,0,
2001-08-02, 01:10:00,VALID,916.883,VALID,0,VALID,97.7737,VALID,-0.0509425,VALID,17.745,VALID,284,VALID,0.423077,
2001-08-02, 01:11:00,VALID,916.895,VALID,0,VALID,98.3281,VALID,-0.0339617,VALID,17.8644,VALID,301,VALID,0.257227,
2001-08-02, 01:12:00,VALID,916.883,VALID,0,VALID,98.557,VALID,-0.0339617,VALID,17.9648,VALID,3,VALID,0.189967,
2001-08-02, 01:13:00,VALID,916.885,VALID,0,VALID,98.6269,VALID,-0.0339617,VALID,18.0199,VALID,29,VALID,0,
2001-08-02, 01:14:00,VALID,916.892,VALID,0,VALID,98.5672,VALID,-0.0169808,VALID,18.0453,VALID,29,VALID,0,
2001-08-02, 01:15:00,VALID,916.914,VALID,0,VALID,98.5163,VALID,0,VALID,18.0741,VALID,15,VALID,0.000195313,
2001-08-02, 01:16:00,VALID,916.893,VALID,0,VALID,98.4603,VALID,0,VALID,18.1163,VALID,20,VALID,0.776521,
2001-08-02, 01:17:00,VALID,916.887,VALID,0,VALID,98.1641,VALID,-0.0509425,VALID,18.1322,VALID,26,VALID,0.883203,
2001-08-02, 01:18:00,VALID,916.872,VALID,0,VALID,98.0127,VALID,-0.0339617,VALID,18.1484,VALID,33,VALID,0.686298,
2001-08-02, 01:19:00,VALID,916.864,VALID,0,VALID,97.8919,VALID,-0.0169808,VALID,18.1903,VALID,34,VALID,0.601758,
2001-08-02, 01:20:00,VALID,916.856,VALID,0,VALID,97.7546,VALID,-0.0339617,VALID,18.2224,VALID,35,VALID,0.334293,
2001-08-02, 01:21:00,VALID,916.85,VALID,0,VALID,97.5677,VALID,-0.0169808,VALID,18.2485,VALID,35,VALID,0.367578,
2001-08-02, 01:22:00,VALID,916.827,VALID,0,VALID,97.1137,VALID,-0.0679233,VALID,18.2259,VALID,35,VALID,0.30028,
2001-08-02, 01:23:00,VALID,916.826,VALID,0,VALID,96.8327,VALID,-0.101885,VALID,18.1841,VALID,34,VALID,0.31543,
2001-08-02, 01:24:00,VALID,916.819,VALID,0,VALID,96.82,VALID,-0.0169808,VALID,18.1578,VALID,18,VALID,0.435855,
2001-08-02, 01:25:00,VALID,916.804,VALID,0,VALID,96.8797,VALID,-0.0339617,VALID,18.161,VALID,9,VALID,0.383203,
2001-08-02, 01:26:00,VALID,916.781,VALID,0,VALID,96.9904,VALID,-0.0679233,VALID,18.191,VALID,5,VALID,0.465545,
2001-08-02, 01:27:00,VALID,916.752,VALID,0,VALID,97.1074,VALID,-0.0849042,VALID,18.2127,VALID,11,VALID,0.425195,
2001-08-02, 01:28:00,VALID,916.734,VALID,0,VALID,97.0832,VALID,-0.0509425,VALID,18.245,VALID,30,VALID,0.17722,
2001-08-02, 01:29:00,VALID,916.71,VALID,0,VALID,96.9357,VALID,-0.0509425,VALID,18.2708,VALID,31,VALID,0,
2001-08-02, 01:30:00,VALID,916.69,VALID,0,VALID,96.82,VALID,-0.0849042,VALID,18.2838,VALID,20,VALID,0.440304,
2001-08-02, 01:31:00,VALID,916.685,VALID,0,VALID,96.8276,VALID,-0.0509425,VALID,18.3163,VALID,6,VALID,0.43418,
2001-08-02, 01:32:00,VALID,916.671,VALID,0,VALID,96.6763,VALID,-0.0169808,VALID,18.3283,VALID,2,VALID,0.117393,
2001-08-02, 01:33:00,VALID,916.679,VALID,0,VALID,96.4003,VALID,-0.0169808,VALID,18.3488,VALID,354,VALID,0.0544922,
2001-08-02, 01:34:00,VALID,916.67,VALID,0,VALID,96.2592,VALID,-0.0169808,VALID,18.3389,VALID,354,VALID,0,
2001-08-02, 01:35:00,VALID,916.671,VALID,0,VALID,96.1091,VALID,-0.0509425,VALID,18.3156,VALID,354,VALID,0,
2001-08-02, 01:36:00,VALID,916.662,VALID,0,VALID,96.0507,VALID,-0.0339617,VALID,18.3029,VALID,354,VALID,0,
2001-08-02, 01:37:00,VALID,916.663,VALID,0,VALID,95.8777,VALID,-0.0169808,VALID,18.2771,VALID,354,VALID,0,
2001-08-02, 01:38:00,VALID,916.642,VALID,0,VALID,95.6488,VALID,-0.0849042,VALID,18.2254,VALID,354,VALID,0,
2001-08-02, 01:39:00,VALID,916.641,VALID,0,VALID,95.6183,VALID,-0.0679233,VALID,18.1839,VALID,6,VALID,0.17832,
2001-08-02, 01:40:00,VALID,916.615,VALID,0,VALID,95.6806,VALID,-0.101885,VALID,18.1387,VALID,22,VALID,0.233141,
2001-08-02, 01:41:00,VALID,916.588,VALID,0,VALID,95.8434,VALID,-0.0679233,VALID,18.0962,VALID,19,VALID,0.469336,
2001-08-02, 01:42:00,VALID,916.571,VALID,0,VALID,96.2567,VALID,-0.0679233,VALID,18.093,VALID,1,VALID,0.421274,
2001-08-02, 01:43:00,VALID,916.559,VALID,0,VALID,96.4639,VALID,-0.0169808,VALID,18.1089,VALID,326,VALID,0.208203,
2001-08-02, 01:44:00,VALID,916.553,VALID,0,VALID,96.7399,VALID,0.0339617,VALID,18.1532,VALID,324,VALID,0.231908,
2001-08-02, 01:45:00,VALID,916.533,VALID,0,VALID,96.736,VALID,0.0509425,VALID,18.1629,VALID,352,VALID,0.0693359,
2001-08-02, 01:46:00,VALID,916.518,VALID,0,VALID,96.6165,VALID,0.0679233,VALID,18.1657,VALID,3,VALID,0.163061,
2001-08-02, 01:47:00,VALID,916.519,VALID,0,VALID,96.4805,VALID,0.0509425,VALID,18.1562,VALID,294,VALID,0.279102,
2001-08-02, 01:48:00,VALID,916.515,VALID,0,VALID,96.7945,VALID,0.0849042,VALID,18.2113,VALID,5,VALID,0.315173,
2001-08-02, 01:49:00,VALID,916.499,VALID,0,VALID,96.5339,VALID,0.0509425,VALID,18.1724,VALID,28,VALID,0.128516,
2001-08-02, 01:50:00,VALID,916.491,VALID,0,VALID,96.3596,VALID,0.0509425,VALID,18.1435,VALID,354,VALID,0.0805288,
2001-08-02, 01:51:00,VALID,916.488,VALID,0,VALID,96.6725,VALID,0.0339617,VALID,18.1592,VALID,242,VALID,0.270117,
2001-08-02, 01:52:00,VALID,916.476,VALID,0,VALID,97.012,VALID,0.0509425,VALID,18.2046,VALID,242,VALID,0,
2001-08-02, 01:53:00,VALID,916.459,VALID,0,VALID,97.1938,VALID,0.0509425,VALID,18.2372,VALID,293,VALID,0,
2001-08-02, 01:54:00,VALID,916.449,VALID,0,VALID,96.9459,VALID,0.0679233,VALID,18.2111,VALID,30,VALID,0,
2001-08-02, 01:55:00,VALID,916.443,VALID,0,VALID,96.8085,VALID,0.0849042,VALID,18.176,VALID,322,VALID,0,
2001-08-02, 01:56:00,VALID,916.436,VALID,0,VALID,97.2536,VALID,0.0679233,VALID,18.2044,VALID,298,VALID,0,
2001-08-02, 01:57:00,VALID,916.41,VALID,0,VALID,97.3871,VALID,0.0509425,VALID,18.224,VALID,343,VALID,0,
2001-08-02, 01:58:00,VALID,916.385,VALID,0,VALID,97.2688,VALID,0.0509425,VALID,18.2213,VALID,7,VALID,0,
2001-08-02, 01:59:00,VALID,916.363,VALID,0,VALID,97.2091,VALID,0.0849042,VALID,18.2017,VALID,327,VALID,0,
2001-08-02, 02:00:00,VALID,916.355,VALID,0,VALID,97.354,VALID,0.0509425,VALID,18.2339,VALID,310,VALID,0.0812089,
2001-08-02, 02:01:00,VALID,916.335,VALID,0,VALID,97.293,VALID,0.0509425,VALID,18.227,VALID,4,VALID,0.308398,
2001-08-02, 02:02:00,VALID,916.311,VALID,0,VALID,97.1658,VALID,0.0679233,VALID,18.2471,VALID,333,VALID,0.502003,
2001-08-02, 02:03:00,VALID,916.309,VALID,0,VALID,97.2002,VALID,0.0679233,VALID,18.2692,VALID,289,VALID,0.363867,
2001-08-02, 02:04:00,VALID,916.311,VALID,0,VALID,97.2129,VALID,0.0679233,VALID,18.2884,VALID,288,VALID,0,
2001-08-02, 02:05:00,VALID,916.295,VALID,0,VALID,97.2218,VALID,0.0849042,VALID,18.308,VALID,329,VALID,0.162695,
2001-08-02, 02:06:00,VALID,916.297,VALID,0,VALID,97.1773,VALID,0.101885,VALID,18.3047,VALID,14,VALID,0.410457,
2001-08-02, 02:07:00,VALID,916.29,VALID,0,VALID,96.9001,VALID,0.0849042,VALID,18.2858,VALID,358,VALID,0.359766,
2001-08-02, 02:08:00,VALID,916.29,VALID,0,VALID,96.6915,VALID,0.0849042,VALID,18.2499,VALID,343,VALID,0.150493,
2001-08-02, 02:09:00,VALID,916.299,VALID,0,VALID,96.8454,VALID,0.0509425,VALID,18.2662,VALID,263,VALID,0.289844,
2001-08-02, 02:10:00,VALID,916.301,VALID,0,VALID,97.2205,VALID,0.0679233,VALID,18.3015,VALID,320,VALID,0.361779,
2001-08-02, 02:11:00,VALID,916.287,VALID,0,VALID,97.2892,VALID,0.0849042,VALID,18.3174,VALID,1,VALID,0.649219,
2001-08-02, 02:12:00,VALID,916.286,VALID,0,VALID,97.0781,VALID,0.101885,VALID,18.3114,VALID,13,VALID,0.698808,
2001-08-02, 02:13:00,VALID,916.279,VALID,0,VALID,96.9891,VALID,0.0509425,VALID,18.3184,VALID,316,VALID,0.303125,
2001-08-02, 02:14:00,VALID,916.285,VALID,0,VALID,97.0222,VALID,-0.0509425,VALID,18.332,VALID,311,VALID,0.208934,
2001-08-02, 02:15:00,VALID,916.274,VALID,0,VALID,96.9484,VALID,-0.0339617,VALID,18.3218,VALID,21,VALID,0.714648,
2001-08-02, 02:16:00,VALID,916.274,VALID,0,VALID,96.7767,VALID,-0.0169808,VALID,18.2997,VALID,28,VALID,0.184827,
2001-08-02, 02:17:00,VALID,916.29,VALID,0,VALID,96.661,VALID,-0.0509425,VALID,18.2934,VALID,5,VALID,0,
2001-08-02, 02:18:00,VALID,916.316,VALID,0,VALID,96.7068,VALID,-0.0339617,VALID,18.2768,VALID,348,VALID,0,
2001-08-02, 02:19:00,VALID,916.329,VALID,0,VALID,96.9853,VALID,-0.0509425,VALID,18.3061,VALID,9,VALID,0.474414,
2001-08-02, 02:20:00,VALID,916.337,VALID,0,VALID,97.0133,VALID,0,VALID,18.3156,VALID,15,VALID,0.453742,
2001-08-02, 02:21:00,VALID,916.341,VALID,0,VALID,96.792,VALID,0,VALID,18.3317,VALID,1,VALID,0.14403,
2001-08-02, 02:22:00,VALID,916.342,VALID,0,VALID,96.7462,VALID,0,VALID,18.3315,VALID,6,VALID,0.0364583,
2001-08-02, 02:23:00,VALID,916.336,VALID,0,VALID,96.5008,VALID,-0.0169808,VALID,18.332,VALID,1,VALID,0.0722656,
2001-08-02, 02:24:00,VALID,916.33,VALID,0,VALID,96.0176,VALID,-0.0339617,VALID,18.2992,VALID,21,VALID,0.669408,
2001-08-02, 02:25:00,VALID,916.308,VALID,0,VALID,95.6641,VALID,-0.0169808,VALID,18.2958,VALID,15,VALID,0.249609,
2001-08-02, 02:26:00,VALID,916.313,VALID,0,VALID,95.3653,VALID,0,VALID,18.2764,VALID,9,VALID,0,
2001-08-02, 02:27:00,VALID,916.319,VALID,0,VALID,95.3131,VALID,0,VALID,18.2962,VALID,11,VALID,0,
2001-08-02, 02:28:00,VALID,916.327,VALID,0,VALID,95.2673,VALID,0,VALID,18.2994,VALID,11,VALID,0,
2001-08-02, 02:29:00,VALID,916.327,VALID,0,VALID,95.0474,VALID,-0.0339617,VALID,18.3128,VALID,15,VALID,0.276172,
2001-08-02, 02:30:00,VALID,916.3,VALID,0,VALID,94.7867,VALID,-0.0169808,VALID,18.3322,VALID,19,VALID,0.163662,
2001-08-02, 02:31:00,VALID,916.32,VALID,0,VALID,94.6671,VALID,-0.0169808,VALID,18.3518,VALID,357,VALID,0,
2001-08-02, 02:32:00,VALID,916.324,VALID,0,VALID,94.657,VALID,-0.0339617,VALID,18.358,VALID,267,VALID,0,
2001-08-02, 02:33:00,VALID,916.304,VALID,0,VALID,94.6722,VALID,-0.0169808,VALID,18.364,VALID,36,VALID,0.0449219,
2001-08-02, 02:34:00,VALID,916.307,VALID,0,VALID,93.8215,VALID,-0.0169808,VALID,18.3933,VALID,20,VALID,1.31991,
2001-08-02, 02:35:00,VALID,916.288,VALID,0,VALID,92.8589,VALID,-0.0679233,VALID,18.4807,VALID,13,VALID,0.32168,
2001-08-02, 02:36:00,VALID,916.306,VALID,0,VALID,92.4889,VALID,-0.0169808,VALID,18.5451,VALID,360,VALID,0.33491,
2001-08-02, 02:37:00,VALID,916.314,VALID,0,VALID,92.0616,VALID,-0.0339617,VALID,18.5846,VALID,11,VALID,0.930273,
2001-08-02, 02:38:00,VALID,916.299,VALID,0,VALID,91.567,VALID,-0.0169808,VALID,18.6261,VALID,310,VALID,0.409455,
2001-08-02, 02:39:00,VALID,916.323,VALID,0,VALID,90.8879,VALID,-0.0339617,VALID,18.6909,VALID,15,VALID,0.268945,
2001-08-02, 02:40:00,VALID,916.324,VALID,0,VALID,90.996,VALID,-0.0339617,VALID,18.7386,VALID,14,VALID,0.206209,
2001-08-02, 02:41:00,VALID,916.32,VALID,0,VALID,91.2287,VALID,0,VALID,18.7583,VALID,3,VALID,0.457617,
2001-08-02, 02:42:00,VALID,916.323,VALID,0,VALID,91.5237,VALID,0,VALID,18.7195,VALID,7,VALID,0.451923,
2001-08-02, 02:43:00,VALID,916.329,VALID,0,VALID,91.5123,VALID,-0.0169808,VALID,18.6674,VALID,16,VALID,0.748047,
2001-08-02, 02:44:00,VALID,916.325,VALID,0,VALID,91.6356,VALID,0,VALID,18.6157,VALID,20,VALID,0.881168,
2001-08-02, 02:45:00,VALID,916.308,VALID,0,VALID,91.4589,VALID,-0.0169808,VALID,18.5866,VALID,17,VALID,0.78418,
2001-08-02, 02:46:00,VALID,916.315,VALID,0,VALID,91.0939,VALID,0,VALID,18.6062,VALID,15,VALID,1.10637,
2001-08-02, 02:47:00,VALID,916.301,VALID,0,VALID,90.5306,VALID,-0.0339617,VALID,18.6681,VALID,25,VALID,0.919336,
2001-08-02, 02:48:00,VALID,916.288,VALID,0,VALID,90.5293,VALID,0,VALID,18.6937,VALID,16,VALID,0.848067,
2001-08-02, 02:49:00,VALID,916.268,VALID,0,VALID,89.6125,VALID,0,VALID,18.7257,VALID,13,VALID,0.934375,
2001-08-02, 02:50:00,VALID,916.255,VALID,0,VALID,89.4002,VALID,-0.0339617,VALID,18.7806,VALID,7,VALID,0.758814,
2001-08-02, 02:51:00,VALID,916.252,VALID,0,VALID,89.5299,VALID,-0.0509425,VALID,18.8095,VALID,9,VALID,0.579492,
2001-08-02, 02:52:00,VALID,916.25,VALID,0,VALID,89.2463,VALID,-0.0169808,VALID,18.8102,VALID,5,VALID,0.641036,
2001-08-02, 02:53:00,VALID,916.247,VALID,0,VALID,89.3569,VALID,-0.0169808,VALID,18.8129,VALID,359,VALID,0.711523,
2001-08-02, 02:54:00,VALID,916.232,VALID,0,VALID,89.1471,VALID,0,VALID,18.8258,VALID,4,VALID,0.721955,
2001-08-02, 02:55:00,VALID,916.242,VALID,0,VALID,89.1522,VALID,0,VALID,18.836,VALID,19,VALID,1.01387,
2001-08-02, 02:56:00,VALID,916.235,VALID,0,VALID,89.2654,VALID,-0.0169808,VALID,18.842,VALID,18,VALID,0.774054,
2001-08-02, 02:57:00,VALID,916.241,VALID,0,VALID,88.7783,VALID,-0.0169808,VALID,18.8293,VALID,352,VALID,0.524414,
2001-08-02, 02:58:00,VALID,916.245,VALID,0,VALID,88.6512,VALID,-0.0339617,VALID,18.8415,VALID,348,VALID,0.36258,
2001-08-02, 02:59:00,VALID,916.252,VALID,0,VALID,88.9106,VALID,0,VALID,18.8611,VALID,28,VALID,0.716602,
2001-08-02, 03:00:00,VALID,916.23,VALID,0,VALID,89.0784,VALID,0,VALID,18.851,VALID,17,VALID,0.929893,
2001-08-02, 03:01:00,VALID,916.254,VALID,0,VALID,89.2158,VALID,-0.0339617,VALID,18.8321,VALID,13,VALID,0.578125,
2001-08-02, 03:02:00,VALID,916.254,VALID,0,VALID,89.5998,VALID,0,VALID,18.809,VALID,3,VALID,0.350761,
2001-08-02, 03:03:00,VALID,916.256,VALID,0,VALID,89.7104,VALID,0,VALID,18.7799,VALID,1,VALID,0.370313,
2001-08-02, 03:04:00,VALID,916.266,VALID,0,VALID,89.9978,VALID,-0.0339617,VALID,18.7541,VALID,13,VALID,0.542146,
2001-08-02, 03:05:00,VALID,916.244,VALID,0,VALID,90.6184,VALID,-0.0339617,VALID,18.7384,VALID,331,VALID,0.104492,
2001-08-02, 03:06:00,VALID,916.247,VALID,0,VALID,91.1283,VALID,0,VALID,18.7317,VALID,10,VALID,0.772035,
2001-08-02, 03:07:00,VALID,916.23,VALID,0,VALID,90.2992,VALID,0,VALID,18.7093,VALID,12,VALID,1.61641,
2001-08-02, 03:08:00,VALID,916.225,VALID,0,VALID,90.008,VALID,-0.0169808,VALID,18.728,VALID,10,VALID,1.34252,
2001-08-02, 03:09:00,VALID,916.22,VALID,0,VALID,89.7079,VALID,-0.0169808,VALID,18.7389,VALID,14,VALID,1.51563,
2001-08-02, 03:10:00,VALID,916.232,VALID,0,VALID,89.4358,VALID,0,VALID,18.7449,VALID,3,VALID,1.1224,
2001-08-02, 03:11:00,VALID,916.262,VALID,0,VALID,89.8541,VALID,-0.0339617,VALID,18.7702,VALID,317,VALID,0.60918,
2001-08-02, 03:12:00,VALID,916.26,VALID,0,VALID,90.1275,VALID,0,VALID,18.7894,VALID,331,VALID,0.523232,
2001-08-02, 03:13:00,VALID,916.242,VALID,0,VALID,89.7791,VALID,-0.0339617,VALID,18.8025,VALID,353,VALID,0.661914,
2001-08-02, 03:14:00,VALID,916.242,VALID,0,VALID,89.2132,VALID,-0.0169808,VALID,18.8219,VALID,3,VALID,1.14083,
2001-08-02, 03:15:00,VALID,916.224,VALID,0,VALID,88.1845,VALID,-0.0509425,VALID,18.877,VALID,356,VALID,1.33145,
2001-08-02, 03:16:00,VALID,916.204,VALID,0,VALID,88.0739,VALID,-0.0339617,VALID,18.9486,VALID,18,VALID,1.19449,
2001-08-02, 03:17:00,VALID,916.198,VALID,0,VALID,87.9849,VALID,-0.0339617,VALID,18.9613,VALID,3,VALID,0.85332,
2001-08-02, 03:18:00,VALID,916.2,VALID,0,VALID,87.9124,VALID,-0.0339617,VALID,18.9578,VALID,357,VALID,0.572316,
2001-08-02, 03:19:00,VALID,916.196,VALID,0,VALID,87.9213,VALID,-0.0679233,VALID,18.9583,VALID,344,VALID,0.26543,
2001-08-02, 03:20:00,VALID,916.192,VALID,0,VALID,87.6822,VALID,-0.0169808,VALID,18.9446,VALID,354,VALID,1.18462,
2001-08-02, 03:21:00,VALID,916.167,VALID,0,VALID,87.7776,VALID,-0.0509425,VALID,18.9839,VALID,11,VALID,1.32656,
2001-08-02, 03:22:00,VALID,916.134,VALID,0,VALID,88.0612,VALID,-0.0679233,VALID,18.9608,VALID,358,VALID,0.686298,
2001-08-02, 03:23:00,VALID,916.13,VALID,0,VALID,88.8864,VALID,-0.0169808,VALID,18.9578,VALID,288,VALID,0.125,
2001-08-02, 03:24:00,VALID,916.133,VALID,0,VALID,89.4408,VALID,0,VALID,18.9382,VALID,303,VALID,0.0637336,
2001-08-02, 03:25:00,VALID,916.121,VALID,0,VALID,89.7384,VALID,-0.0169808,VALID,18.9091,VALID,342,VALID,0.210156,
2001-08-02, 03:26:00,VALID,916.118,VALID,0,VALID,88.9182,VALID,-0.0339617,VALID,18.9123,VALID,290,VALID,0.629808,
2001-08-02, 03:27:00,VALID,916.123,VALID,0,VALID,89.4917,VALID,0,VALID,18.9223,VALID,331,VALID,0.696289,
2001-08-02, 03:28:00,VALID,916.115,VALID,0,VALID,89.3633,VALID,-0.0169808,VALID,18.9061,VALID,14,VALID,1.29564,
2001-08-02, 03:29:00,VALID,916.119,VALID,0,VALID,88.8788,VALID,-0.0509425,VALID,18.88,VALID,4,VALID,0.772656,
2001-08-02, 03:30:00,VALID,916.108,VALID,0,VALID,88.9996,VALID,-0.0339617,VALID,18.8897,VALID,7,VALID,1.04728,
2001-08-02, 03:31:00,VALID,916.095,VALID,0,VALID,88.3778,VALID,-0.0169808,VALID,18.8959,VALID,353,VALID,0.975391,
2001-08-02, 03:32:00,VALID,916.106,VALID,0,VALID,88.5317,VALID,-0.0509425,VALID,18.9059,VALID,350,VALID,0.698602,
2001-08-02, 03:33:00,VALID,916.094,VALID,0,VALID,88.5355,VALID,-0.0169808,VALID,18.8997,VALID,358,VALID,0.879883,
2001-08-02, 03:34:00,VALID,916.081,VALID,0,VALID,87.2359,VALID,-0.0339617,VALID,18.8932,VALID,360,VALID,1.48037,
2001-08-02, 03:35:00,VALID,916.084,VALID,0,VALID,87.0884,VALID,-0.101885,VALID,18.958,VALID,18,VALID,1.32012,
2001-08-02, 03:36:00,VALID,916.095,VALID,0,VALID,87.8132,VALID,-0.0679233,VALID,18.9483,VALID,353,VALID,0.671875,
2001-08-02, 03:37:00,VALID,916.101,VALID,0,VALID,88.7605,VALID,-0.0339617,VALID,18.9098,VALID,348,VALID,0.813867,
2001-08-02, 03:38:00,VALID,916.099,VALID,0,VALID,88.0434,VALID,-0.0849042,VALID,18.8743,VALID,2,VALID,1.09615,